Time,TemperatureF,DewpointF,PressureIn,WindDirection,WindDirectionDegrees,WindSpeedMPH,WindSpeedGustMPH,Humidity,HourlyPrecipIn,Conditions,Clouds,dailyrainin,SoftwareType,DateUTC
2013-04-14 00:02:00,39.0,-99.9,29.91,WNW,285,5.4,7.2,-999,0.00,,,-99.99,perl,2013-04-14 04:02:00,
2013-04-14 00:04:00,39.0,-99.9,29.91,WSW,239,5.8,8.3,-999,0.00,,,-99.99,perl,2013-04-14 04:04:00,
2013-04-14 00:08:00,39.0,-99.9,29.91,WSW,257,8.3,8.3,-999,0.00,,,-99.99,perl,2013-04-14 04:08:00,
2013-04-14 00:10:00,39.0,-99.9,29.91,West,263,7.2,8.3,-999,0.00,,,-99.99,perl,2013-04-14 04:10:00,
2013-04-14 00:15:00,39.0,-99.9,29.91,WSW,242,4.9,7.6,-999,0.00,,,-99.99,perl,2013-04-14 04:15:00,
2013-04-14 00:20:00,39.0,-99.9,29.91,West,278,4.9,6.3,-999,0.00,,,-99.99,perl,2013-04-14 04:20:00,
2013-04-14 00:25:00,38.8,-99.9,29.91,WSW,237,4.5,4.9,-999,0.00,,,-99.99,perl,2013-04-14 04:25:00,
2013-04-14 00:30:00,38.8,-99.9,29.91,WSW,251,4.0,4.9,-999,0.00,,,-99.99,perl,2013-04-14 04:30:00,
2013-04-14 00:35:00,38.8,-99.9,29.91,West,274,4.5,4.9,-999,0.00,,,-99.99,perl,2013-04-14 04:35:00,
2013-04-14 00:40:00,38.8,-99.9,29.91,West,260,4.5,8.7,-999,0.00,,,-99.99,perl,2013-04-14 04:40:00,
2013-04-14 00:45:00,38.8,-99.9,29.91,WSW,244,6.7,6.7,-999,0.00,,,-99.99,perl,2013-04-14 04:45:00,
2013-04-14 00:50:00,38.8,-99.9,29.91,WSW,251,6.3,9.6,-999,0.00,,,-99.99,perl,2013-04-14 04:50:00,
2013-04-14 00:55:00,39.0,-99.9,29.91,SW,236,5.4,6.3,-999,0.00,,,-99.99,perl,2013-04-14 04:55:00,
2013-04-14 01:00:00,39.0,-99.9,29.91,WSW,250,4.5,4.5,-999,0.00,,,-99.99,perl,2013-04-14 05:00:00,
2013-04-14 01:05:00,39.2,-99.9,29.91,WSW,244,4.9,5.8,-999,0.00,,,-99.99,perl,2013-04-14 05:05:00,
2013-04-14 01:10:00,39.2,-99.9,29.91,WSW,245,6.3,8.7,-999,0.00,,,-99.99,perl,2013-04-14 05:10:00,
2013-04-14 01:15:00,39.2,-99.9,29.91,West,263,4.5,5.8,-999,0.00,,,-99.99,perl,2013-04-14 05:15:00,
2013-04-14 01:21:00,39.2,-99.9,29.91,West,278,6.3,6.3,-999,0.00,,,-99.99,perl,2013-04-14 05:21:00,
2013-04-14 01:26:00,39.2,-99.9,29.91,WSW,254,9.6,12.3,-999,0.00,,,-99.99,perl,2013-04-14 05:26:00,
2013-04-14 01:31:00,38.1,-99.9,29.94,WNW,296,5.4,6.3,-999,0.00,,,-99.99,perl,2013-04-14 05:31:00,
2013-04-14 01:36:00,37.0,-99.9,29.94,WNW,285,3.1,5.8,-999,0.00,,,-99.99,perl,2013-04-14 05:36:00,
2013-04-14 01:41:00,36.3,-99.9,29.94,NW,307,3.1,3.1,-999,0.00,,,-99.99,perl,2013-04-14 05:41:00,
2013-04-14 01:46:00,36.0,-99.9,29.94,West,259,2.2,3.1,-999,0.00,,,-99.99,perl,2013-04-14 05:46:00,
2013-04-14 01:51:00,35.8,-99.9,29.94,West,271,2.7,4.9,-999,0.00,,,-99.99,perl,2013-04-14 05:51:00,
2013-04-14 01:56:00,35.8,-99.9,29.94,WNW,295,2.2,2.2,-999,0.00,,,-99.99,perl,2013-04-14 05:56:00,
2013-04-14 02:01:00,35.6,-99.9,29.94,West,260,3.1,3.1,-999,0.00,,,-99.99,perl,2013-04-14 06:01:00,
2013-04-14 02:06:00,35.8,32.0,29.94,West,280,4.9,4.9,86,0.00,,,-99.99,perl,2013-04-14 06:06:00,
2013-04-14 02:11:00,35.8,32.0,29.94,West,262,0.0,3.6,86,0.00,,,-99.99,perl,2013-04-14 06:11:00,
2013-04-14 02:16:00,36.0,32.0,29.94,WSW,252,0.0,0.0,85,0.00,,,-99.99,perl,2013-04-14 06:16:00,
2013-04-14 02:21:00,36.1,32.0,29.94,West,272,0.0,0.0,85,0.00,,,-99.99,perl,2013-04-14 06:21:00,
2013-04-14 02:26:00,36.1,32.0,29.94,WNW,289,3.1,5.4,85,0.00,,,-99.99,perl,2013-04-14 06:26:00,
2013-04-14 02:31:00,36.7,35.6,29.94,West,264,2.7,8.3,96,0.00,,,-99.99,perl,2013-04-14 06:31:00,
2013-04-14 02:36:00,36.9,35.6,29.94,West,268,4.0,4.0,95,0.00,,,-99.99,perl,2013-04-14 06:36:00,
2013-04-14 02:41:00,37.2,33.8,29.94,SW,228,3.6,4.0,87,0.00,,,-99.99,perl,2013-04-14 06:41:00,
2013-04-14 02:46:00,37.4,33.8,29.94,SW,229,4.0,5.8,87,0.00,,,-99.99,perl,2013-04-14 06:46:00,
2013-04-14 02:51:00,37.6,32.0,29.94,SSW,207,3.1,5.4,80,0.00,,,-99.99,perl,2013-04-14 06:51:00,
2013-04-14 02:56:00,37.8,32.0,29.94,WSW,250,3.6,4.9,80,0.00,,,-99.99,perl,2013-04-14 06:56:00,
2013-04-14 03:01:00,37.9,-99.9,29.94,WSW,247,4.0,8.7,-999,0.00,,,-99.99,perl,2013-04-14 07:01:00,
2013-04-14 03:06:00,38.1,-99.9,29.94,WSW,243,5.4,10.1,-999,0.00,,,-99.99,perl,2013-04-14 07:06:00,
2013-04-14 03:12:00,38.1,-99.9,29.94,WSW,258,5.4,5.4,-999,0.00,,,-99.99,perl,2013-04-14 07:12:00,
2013-04-14 03:17:00,38.1,-99.9,29.94,WNW,284,4.9,4.9,-999,0.00,,,-99.99,perl,2013-04-14 07:17:00,
2013-04-14 03:23:00,38.1,-99.9,29.94,SW,234,4.5,5.8,-999,0.00,,,-99.99,perl,2013-04-14 07:23:00,
2013-04-14 03:28:00,38.1,-99.9,29.94,WNW,291,7.2,7.2,-999,0.00,,,-99.99,perl,2013-04-14 07:28:00,
2013-04-14 03:34:00,38.1,-99.9,29.94,WNW,288,6.3,8.7,-999,0.00,,,-99.99,perl,2013-04-14 07:34:00,
2013-04-14 03:39:00,38.1,-99.9,29.94,WSW,246,5.8,8.1,-999,0.00,,,-99.99,perl,2013-04-14 07:39:00,
2013-04-14 03:44:00,38.1,-99.9,29.94,SW,228,3.6,4.0,-999,0.00,,,-99.99,perl,2013-04-14 07:44:00,
2013-04-14 03:49:00,38.1,-99.9,29.94,WSW,251,2.7,4.0,-999,0.00,,,-99.99,perl,2013-04-14 07:49:00,
2013-04-14 03:54:00,37.9,-99.9,29.94,WSW,244,4.5,6.3,-999,0.00,,,-99.99,perl,2013-04-14 07:54:00,
2013-04-14 03:59:00,37.9,-99.9,29.94,WSW,244,4.0,4.0,-999,0.00,,,-99.99,perl,2013-04-14 07:59:00,
2013-04-14 04:05:00,37.9,-99.9,29.94,West,259,3.6,3.6,-999,0.00,,,-99.99,perl,2013-04-14 08:05:00,
2013-04-14 04:10:00,37.8,-99.9,29.94,West,259,6.3,6.3,-999,0.00,,,-99.99,perl,2013-04-14 08:10:00,
2013-04-14 04:15:00,37.9,-99.9,29.94,WNW,293,3.6,0.0,-999,0.00,,,-99.99,perl,2013-04-14 08:15:00,
2013-04-14 04:20:00,37.8,-99.9,29.94,West,278,3.1,7.6,-999,0.00,,,-99.99,perl,2013-04-14 08:20:00,
2013-04-14 04:26:00,37.8,-99.9,29.94,West,268,4.5,5.8,-999,0.00,,,-99.99,perl,2013-04-14 08:26:00,
2013-04-14 04:31:00,37.8,-99.9,29.94,WNW,282,3.6,5.4,-999,0.00,,,-99.99,perl,2013-04-14 08:31:00,
2013-04-14 04:36:00,37.8,-99.9,29.94,West,270,4.9,12.3,-999,0.00,,,-99.99,perl,2013-04-14 08:36:00,
2013-04-14 04:42:00,37.6,-99.9,29.94,WNW,295,4.9,8.1,-999,0.00,,,-99.99,perl,2013-04-14 08:42:00,
2013-04-14 04:47:00,37.6,-99.9,29.97,WNW,286,5.4,8.3,-999,0.00,,,-99.99,perl,2013-04-14 08:47:00,
2013-04-14 04:52:00,37.6,-99.9,29.97,WNW,292,4.0,8.1,-999,0.00,,,-99.99,perl,2013-04-14 08:52:00,
2013-04-14 04:58:00,37.6,-99.9,29.97,West,274,6.3,7.6,-999,0.00,,,-99.99,perl,2013-04-14 08:58:00,
2013-04-14 05:03:00,37.6,-99.9,29.97,NW,313,4.0,4.9,-999,0.00,,,-99.99,perl,2013-04-14 09:03:00,
2013-04-14 05:08:00,37.4,-99.9,29.97,WSW,252,5.8,6.3,-999,0.00,,,-99.99,perl,2013-04-14 09:08:00,
2013-04-14 05:14:00,37.4,-99.9,29.97,WSW,254,3.1,3.6,-999,0.00,,,-99.99,perl,2013-04-14 09:14:00,
2013-04-14 05:19:00,37.2,-99.9,29.97,WSW,253,4.5,7.6,-999,0.00,,,-99.99,perl,2013-04-14 09:19:00,
2013-04-14 05:24:00,37.0,-99.9,29.97,WSW,255,4.9,5.8,-999,0.00,,,-99.99,perl,2013-04-14 09:24:00,
2013-04-14 05:29:00,37.0,-99.9,29.97,WSW,241,5.4,7.6,-999,0.00,,,-99.99,perl,2013-04-14 09:29:00,
2013-04-14 05:34:00,37.0,-99.9,29.97,West,276,2.7,5.8,-999,0.00,,,-99.99,perl,2013-04-14 09:34:00,
2013-04-14 05:40:00,36.9,-99.9,29.97,WSW,237,4.5,5.8,-999,0.00,,,-99.99,perl,2013-04-14 09:40:00,
2013-04-14 05:45:00,36.9,-99.9,29.97,West,274,3.6,5.8,-999,0.00,,,-99.99,perl,2013-04-14 09:45:00,
2013-04-14 05:50:00,36.9,-99.9,29.97,West,279,3.6,8.7,-999,0.00,,,-99.99,perl,2013-04-14 09:50:00,
2013-04-14 05:55:00,36.7,-99.9,29.97,WSW,246,3.6,8.1,-999,0.00,,,-99.99,perl,2013-04-14 09:55:00,
2013-04-14 06:00:00,36.7,-99.9,29.97,WNW,285,4.5,4.5,-999,0.00,,,-99.99,perl,2013-04-14 10:00:00,
2013-04-14 06:05:00,36.7,-99.9,29.97,WSW,253,4.0,6.3,-999,0.00,,,-99.99,perl,2013-04-14 10:05:00,
2013-04-14 06:10:00,36.7,-99.9,29.97,WNW,287,4.5,5.8,-999,0.00,,,-99.99,perl,2013-04-14 10:10:00,
2013-04-14 06:15:00,36.7,-99.9,29.97,West,272,5.8,8.7,-999,0.00,,,-99.99,perl,2013-04-14 10:15:00,
2013-04-14 06:20:00,36.7,-99.9,29.97,SW,222,3.6,6.3,-999,0.00,,,-99.99,perl,2013-04-14 10:20:00,
2013-04-14 06:25:00,36.5,-99.9,29.97,SW,235,5.8,7.2,-999,0.00,,,-99.99,perl,2013-04-14 10:25:00,
2013-04-14 06:30:00,36.5,-99.9,30.00,WSW,250,6.7,6.7,-999,0.00,,,-99.99,perl,2013-04-14 10:30:00,
2013-04-14 06:36:00,36.3,-99.9,30.00,West,267,4.5,5.8,-999,0.00,,,-99.99,perl,2013-04-14 10:36:00,
2013-04-14 06:41:00,36.1,-99.9,30.00,WSW,239,4.9,5.8,-999,0.00,,,-99.99,perl,2013-04-14 10:41:00,
2013-04-14 06:46:00,36.1,-99.9,30.00,WSW,254,3.6,6.3,-999,0.00,,,-99.99,perl,2013-04-14 10:46:00,
2013-04-14 06:51:00,36.1,-99.9,30.00,West,260,4.0,4.0,-999,0.00,,,-99.99,perl,2013-04-14 10:51:00,
2013-04-14 06:56:00,36.0,-99.9,30.00,West,270,4.5,7.6,-999,0.00,,,-99.99,perl,2013-04-14 10:56:00,
2013-04-14 07:02:00,35.8,-99.9,30.00,WSW,237,2.7,2.7,-999,0.00,,,-99.99,perl,2013-04-14 11:02:00,
2013-04-14 07:08:00,35.8,-99.9,30.00,West,281,2.2,4.0,-999,0.00,,,-99.99,perl,2013-04-14 11:08:00,
2013-04-14 07:13:00,36.0,-99.9,30.00,WSW,255,4.5,4.5,-999,0.00,,,-99.99,perl,2013-04-14 11:13:00,
2013-04-14 07:18:00,36.0,-99.9,30.00,WNW,286,0.0,6.3,-999,0.00,,,-99.99,perl,2013-04-14 11:18:00,
2013-04-14 07:23:00,36.0,-99.9,30.00,West,259,3.6,5.4,-999,0.00,,,-99.99,perl,2013-04-14 11:23:00,
2013-04-14 07:28:00,36.1,-99.9,30.00,WSW,245,2.7,4.0,-999,0.00,,,-99.99,perl,2013-04-14 11:28:00,
2013-04-14 07:34:00,36.1,-99.9,30.03,WSW,243,4.0,5.4,-999,0.00,,,-99.99,perl,2013-04-14 11:34:00,
2013-04-14 07:39:00,36.3,-99.9,30.03,WSW,256,0.0,5.4,-999,0.00,,,-99.99,perl,2013-04-14 11:39:00,
2013-04-14 07:44:00,36.5,-99.9,30.03,West,264,4.9,5.8,-999,0.00,,,-99.99,perl,2013-04-14 11:44:00,
2013-04-14 07:49:00,36.7,-99.9,30.03,West,263,5.8,5.8,-999,0.00,,,-99.99,perl,2013-04-14 11:49:00,
2013-04-14 07:54:00,36.9,-99.9,30.03,WSW,246,3.6,5.8,-999,0.00,,,-99.99,perl,2013-04-14 11:54:00,
2013-04-14 07:59:00,36.9,-99.9,30.03,WSW,257,6.7,10.1,-999,0.00,,,-99.99,perl,2013-04-14 11:59:00,
2013-04-14 08:04:00,37.0,-99.9,30.03,WSW,251,5.4,6.3,-999,0.00,,,-99.99,perl,2013-04-14 12:04:00,
2013-04-14 08:09:00,37.2,-99.9,30.03,West,273,5.4,5.4,-999,0.00,,,-99.99,perl,2013-04-14 12:09:00,
2013-04-14 08:14:00,37.4,-99.9,30.03,SW,225,5.4,5.4,-999,0.00,,,-99.99,perl,2013-04-14 12:14:00,
2013-04-14 08:19:00,37.6,-99.9,30.03,NW,306,4.5,5.4,-999,0.00,,,-99.99,perl,2013-04-14 12:19:00,
2013-04-14 08:24:00,37.6,-99.9,30.03,WNW,282,6.3,7.6,-999,0.00,,,-99.99,perl,2013-04-14 12:24:00,
2013-04-14 08:29:00,37.9,-99.9,30.03,WNW,288,4.0,5.4,-999,0.00,,,-99.99,perl,2013-04-14 12:29:00,
2013-04-14 08:34:00,38.1,-99.9,30.03,WNW,292,4.0,5.4,-999,0.00,,,-99.99,perl,2013-04-14 12:34:00,
2013-04-14 08:39:00,38.5,-99.9,30.03,WSW,256,2.2,8.1,-999,0.00,,,-99.99,perl,2013-04-14 12:39:00,
2013-04-14 08:45:00,38.7,-99.9,30.03,West,263,8.1,8.1,-999,0.00,,,-99.99,perl,2013-04-14 12:45:00,
2013-04-14 08:51:00,38.8,-99.9,30.03,WNW,302,4.5,5.8,-999,0.00,,,-99.99,perl,2013-04-14 12:51:00,
2013-04-14 08:56:00,38.7,-99.9,30.03,WSW,238,4.9,5.4,-999,0.00,,,-99.99,perl,2013-04-14 12:56:00,
2013-04-14 09:01:00,38.5,-99.9,30.03,West,263,8.3,10.1,-999,0.00,,,-99.99,perl,2013-04-14 13:01:00,
2013-04-14 09:06:00,38.8,-99.9,30.03,NW,309,4.5,6.3,-999,0.00,,,-99.99,perl,2013-04-14 13:06:00,
2013-04-14 09:11:00,39.0,-99.9,30.03,NW,316,2.2,4.9,-999,0.00,,,-99.99,perl,2013-04-14 13:11:00,
2013-04-14 09:16:00,39.4,-99.9,30.03,NW,315,0.0,5.8,-999,0.00,,,-99.99,perl,2013-04-14 13:16:00,
2013-04-14 09:22:00,39.2,-99.9,30.03,WNW,284,4.5,9.6,-999,0.00,,,-99.99,perl,2013-04-14 13:22:00,
2013-04-14 09:27:00,39.4,-99.9,30.03,West,260,4.0,6.3,-999,0.00,,,-99.99,perl,2013-04-14 13:27:00,
2013-04-14 09:32:00,39.6,-99.9,30.06,NW,314,5.4,6.3,-999,0.00,,,-99.99,perl,2013-04-14 13:32:00,
2013-04-14 09:38:00,39.7,-99.9,30.06,West,271,9.2,10.5,-999,0.00,,,-99.99,perl,2013-04-14 13:38:00,
2013-04-14 09:43:00,40.1,-99.9,30.06,WNW,282,6.3,6.3,-999,0.00,,,-99.99,perl,2013-04-14 13:43:00,
2013-04-14 09:48:00,40.3,-99.9,30.06,WSW,242,4.9,10.1,-999,0.00,,,-99.99,perl,2013-04-14 13:48:00,
2013-04-14 09:53:00,40.8,-99.9,30.06,West,260,5.4,7.6,-999,0.00,,,-99.99,perl,2013-04-14 13:53:00,
2013-04-14 09:59:00,41.0,-99.9,30.06,WSW,257,5.4,8.3,-999,0.00,,,-99.99,perl,2013-04-14 13:59:00,
2013-04-14 10:04:00,40.5,-99.9,30.06,WSW,249,7.2,7.2,-999,0.00,,,-99.99,perl,2013-04-14 14:04:00,
2013-04-14 10:10:00,40.5,-99.9,30.06,WSW,256,8.7,15.4,-999,0.00,,,-99.99,perl,2013-04-14 14:10:00,
2013-04-14 10:15:00,40.6,-99.9,30.06,WNW,294,7.2,7.2,-999,0.00,,,-99.99,perl,2013-04-14 14:15:00,
2013-04-14 10:20:00,41.0,-99.9,30.06,West,267,6.3,8.3,-999,0.00,,,-99.99,perl,2013-04-14 14:20:00,
2013-04-14 10:25:00,40.5,-99.9,30.06,WSW,256,8.7,8.7,-999,0.00,,,-99.99,perl,2013-04-14 14:25:00,
2013-04-14 10:31:00,41.0,-99.9,30.06,NW,305,4.0,4.0,-999,0.00,,,-99.99,perl,2013-04-14 14:31:00,
2013-04-14 10:36:00,41.4,-99.9,30.06,West,266,6.3,8.1,-999,0.00,,,-99.99,perl,2013-04-14 14:36:00,
2013-04-14 10:41:00,41.5,-99.9,30.06,West,263,4.9,10.5,-999,0.00,,,-99.99,perl,2013-04-14 14:41:00,
2013-04-14 10:46:00,41.7,-99.9,30.06,West,281,6.7,6.7,-999,0.00,,,-99.99,perl,2013-04-14 14:46:00,
2013-04-14 10:51:00,41.0,-99.9,30.06,West,261,6.7,8.7,-999,0.00,,,-99.99,perl,2013-04-14 14:51:00,
2013-04-14 10:56:00,41.2,-99.9,30.06,WNW,288,3.6,5.8,-999,0.00,,,-99.99,perl,2013-04-14 14:56:00,
2013-04-14 11:01:00,41.0,-99.9,30.06,WSW,248,4.0,8.7,-999,0.00,,,-99.99,perl,2013-04-14 15:01:00,
2013-04-14 11:06:00,41.0,-99.9,30.06,West,271,3.6,5.8,-999,0.00,,,-99.99,perl,2013-04-14 15:06:00,
2013-04-14 11:11:00,41.2,-99.9,30.06,West,261,3.6,10.5,-999,0.00,,,-99.99,perl,2013-04-14 15:11:00,
2013-04-14 11:16:00,41.9,-99.9,30.06,WNW,293,3.6,4.0,-999,0.00,,,-99.99,perl,2013-04-14 15:16:00,
2013-04-14 11:21:00,42.3,-99.9,30.06,WNW,303,4.9,5.4,-999,0.00,,,-99.99,perl,2013-04-14 15:21:00,
2013-04-14 11:26:00,42.3,-99.9,30.06,West,279,6.3,6.3,-999,0.00,,,-99.99,perl,2013-04-14 15:26:00,
2013-04-14 11:31:00,42.4,-99.9,30.08,WSW,258,2.2,7.6,-999,0.00,,,-99.99,perl,2013-04-14 15:31:00,
2013-04-14 11:36:00,41.9,-99.9,30.08,West,262,5.4,8.1,-999,0.00,,,-99.99,perl,2013-04-14 15:36:00,
2013-04-14 11:42:00,41.7,-99.9,30.08,NW,318,2.7,3.6,-999,0.00,,,-99.99,perl,2013-04-14 15:42:00,
2013-04-14 11:47:00,41.7,-99.9,30.08,NW,319,2.7,4.0,-999,0.00,,,-99.99,perl,2013-04-14 15:47:00,
2013-04-14 11:53:00,41.7,-99.9,30.08,WSW,242,0.0,9.6,-999,0.00,,,-99.99,perl,2013-04-14 15:53:00,
2013-04-14 11:58:00,41.5,-99.9,30.08,West,260,5.4,10.1,-999,0.00,,,-99.99,perl,2013-04-14 15:58:00,
2013-04-14 12:03:00,41.2,-99.9,30.08,WSW,244,4.5,5.4,-999,0.00,,,-99.99,perl,2013-04-14 16:03:00,
2013-04-14 12:09:00,41.5,-99.9,30.08,WNW,290,3.6,4.0,-999,0.00,,,-99.99,perl,2013-04-14 16:09:00,
2013-04-14 12:15:00,41.5,-99.9,30.08,West,264,6.3,8.1,-999,0.00,,,-99.99,perl,2013-04-14 16:15:00,
2013-04-14 12:20:00,42.1,-99.9,30.08,WNW,287,4.0,5.8,-999,0.00,,,-99.99,perl,2013-04-14 16:20:00,
2013-04-14 12:25:00,42.4,-99.9,30.08,West,259,3.6,8.3,-999,0.00,,,-99.99,perl,2013-04-14 16:25:00,
2013-04-14 12:30:00,42.6,-99.9,30.08,SW,227,7.2,7.6,-999,0.00,,,-99.99,perl,2013-04-14 16:30:00,
2013-04-14 12:35:00,42.8,-99.9,30.08,West,275,4.5,6.3,-999,0.00,,,-99.99,perl,2013-04-14 16:35:00,
2013-04-14 12:40:00,42.6,-99.9,30.08,WNW,293,4.0,4.0,-999,0.00,,,-99.99,perl,2013-04-14 16:40:00,
2013-04-14 12:45:00,42.4,-99.9,30.11,WNW,295,3.6,3.6,-999,0.00,,,-99.99,perl,2013-04-14 16:45:00,
2013-04-14 12:50:00,42.4,-99.9,30.11,West,278,3.6,4.0,-999,0.00,,,-99.99,perl,2013-04-14 16:50:00,
2013-04-14 12:56:00,42.8,-99.9,30.11,WNW,303,4.0,5.4,-999,0.00,,,-99.99,perl,2013-04-14 16:56:00,
2013-04-14 13:02:00,43.0,-99.9,30.11,WNW,285,4.0,5.4,-999,0.00,,,-99.99,perl,2013-04-14 17:02:00,
2013-04-14 13:08:00,42.8,-99.9,30.11,West,259,5.4,5.8,-999,0.00,,,-99.99,perl,2013-04-14 17:08:00,
2013-04-14 13:14:00,42.6,-99.9,30.11,WSW,254,5.8,5.8,-999,0.00,,,-99.99,perl,2013-04-14 17:14:00,
2013-04-14 13:19:00,42.6,-99.9,30.11,WNW,288,2.7,3.6,-999,0.00,,,-99.99,perl,2013-04-14 17:19:00,
2013-04-14 13:24:00,42.8,-99.9,30.11,NNW,330,0.0,5.4,-999,0.00,,,-99.99,perl,2013-04-14 17:24:00,
2013-04-14 13:29:00,43.0,-99.9,30.11,WNW,295,4.0,4.9,-999,0.00,,,-99.99,perl,2013-04-14 17:29:00,
2013-04-14 13:35:00,43.5,-99.9,30.11,NNW,338,3.1,5.8,-999,0.00,,,-99.99,perl,2013-04-14 17:35:00,
2013-04-14 13:41:00,43.7,-99.9,30.11,NW,320,4.5,5.8,-999,0.00,,,-99.99,perl,2013-04-14 17:41:00,
2013-04-14 13:46:00,43.3,-99.9,30.11,West,280,5.4,5.4,-999,0.00,,,-99.99,perl,2013-04-14 17:46:00,
2013-04-14 13:51:00,43.3,-99.9,30.11,NW,311,2.2,4.0,-999,0.00,,,-99.99,perl,2013-04-14 17:51:00,
2013-04-14 13:56:00,43.7,-99.9,30.11,West,267,5.4,10.1,-999,0.00,,,-99.99,perl,2013-04-14 17:56:00,
2013-04-14 14:02:00,43.7,-99.9,30.11,NW,310,4.0,5.8,-999,0.00,,,-99.99,perl,2013-04-14 18:02:00,
2013-04-14 14:08:00,43.7,-99.9,30.11,North,349,4.5,4.5,-999,0.00,,,-99.99,perl,2013-04-14 18:08:00,
2013-04-14 14:14:00,43.5,-99.9,30.11,West,266,0.0,5.8,-999,0.00,,,-99.99,perl,2013-04-14 18:14:00,
2013-04-14 14:20:00,43.2,-99.9,30.11,North,353,0.0,0.0,-999,0.00,,,-99.99,perl,2013-04-14 18:20:00,
2013-04-14 14:25:00,42.8,-99.9,30.11,NNW,338,0.0,0.0,-999,0.00,,,-99.99,perl,2013-04-14 18:25:00,
2013-04-14 14:31:00,42.8,-99.9,30.11,NW,305,0.0,0.0,-999,0.00,,,-99.99,perl,2013-04-14 18:31:00,
2013-04-14 14:37:00,43.2,-99.9,30.11,NNW,336,0.0,0.0,-999,0.00,,,-99.99,perl,2013-04-14 18:37:00,
2013-04-14 14:42:00,43.5,-99.9,30.11,SSE,147,3.1,5.4,-999,0.00,,,-99.99,perl,2013-04-14 18:42:00,
2013-04-14 14:48:00,43.7,-99.9,30.11,WSW,238,2.2,3.1,-999,0.00,,,-99.99,perl,2013-04-14 18:48:00,
2013-04-14 14:55:00,43.9,-99.9,30.11,WSW,254,0.0,0.0,-999,0.00,,,-99.99,perl,2013-04-14 18:55:00,
2013-04-14 15:00:00,44.6,-99.9,30.11,ENE,66,0.0,5.4,-999,0.00,,,-99.99,perl,2013-04-14 19:00:00,
2013-04-14 15:06:00,44.8,-99.9,30.11,WSW,253,2.7,3.1,-999,0.00,,,-99.99,perl,2013-04-14 19:06:00,
2013-04-14 15:11:00,44.4,-99.9,30.11,South,179,3.6,6.3,-999,0.00,,,-99.99,perl,2013-04-14 19:11:00,
2013-04-14 15:16:00,44.4,-99.9,30.11,West,267,3.1,4.0,-999,0.00,,,-99.99,perl,2013-04-14 19:16:00,
2013-04-14 15:21:00,44.4,-99.9,30.11,SW,215,2.2,4.9,-999,0.00,,,-99.99,perl,2013-04-14 19:21:00,
2013-04-14 15:27:00,44.6,-99.9,30.11,NW,313,3.6,4.0,-999,0.00,,,-99.99,perl,2013-04-14 19:27:00,
2013-04-14 15:32:00,44.6,-99.9,30.11,North,349,2.7,4.0,-999,0.00,,,-99.99,perl,2013-04-14 19:32:00,
2013-04-14 15:37:00,44.8,-99.9,30.11,North,351,3.6,3.6,-999,0.00,,,-99.99,perl,2013-04-14 19:37:00,
2013-04-14 15:42:00,45.1,-99.9,30.11,SW,218,0.0,3.1,-999,0.00,,,-99.99,perl,2013-04-14 19:42:00,
2013-04-14 15:47:00,45.1,-99.9,30.11,North,353,0.0,0.0,-999,0.00,,,-99.99,perl,2013-04-14 19:47:00,
2013-04-14 15:52:00,45.3,-99.9,30.11,ESE,116,2.2,4.0,-999,0.00,,,-99.99,perl,2013-04-14 19:52:00,
2013-04-14 15:58:00,45.1,-99.9,30.11,South,177,0.0,2.7,-999,0.00,,,-99.99,perl,2013-04-14 19:58:00,
2013-04-14 16:03:00,45.1,-99.9,30.11,North,5,2.2,2.7,-999,0.00,,,-99.99,perl,2013-04-14 20:03:00,
2013-04-14 16:09:00,45.3,-99.9,30.11,NE,48,4.0,5.4,-999,0.00,,,-99.99,perl,2013-04-14 20:09:00,
2013-04-14 16:14:00,45.0,-99.9,30.11,NE,37,3.1,6.3,-999,0.00,,,-99.99,perl,2013-04-14 20:14:00,
2013-04-14 16:19:00,45.0,-99.9,30.11,South,186,3.1,3.6,-999,0.00,,,-99.99,perl,2013-04-14 20:19:00,
2013-04-14 16:24:00,45.7,-99.9,30.11,NNE,33,2.2,2.2,-999,0.00,,,-99.99,perl,2013-04-14 20:24:00,
2013-04-14 16:29:00,46.0,-99.9,30.11,SSW,201,0.0,3.6,-999,0.00,,,-99.99,perl,2013-04-14 20:29:00,
2013-04-14 16:34:00,45.9,-99.9,30.11,SE,125,0.0,2.7,-999,0.00,,,-99.99,perl,2013-04-14 20:34:00,
2013-04-14 16:39:00,46.2,-99.9,30.11,ESE,118,0.0,0.0,-999,0.00,,,-99.99,perl,2013-04-14 20:39:00,
2013-04-14 16:46:00,46.0,-99.9,30.11,North,6,2.7,3.6,-999,0.00,,,-99.99,perl,2013-04-14 20:46:00,
2013-04-14 16:52:00,46.0,-99.9,30.11,WNW,298,0.0,0.0,-999,0.00,,,-99.99,perl,2013-04-14 20:52:00,
2013-04-14 16:58:00,45.5,-99.9,30.11,West,260,2.2,4.0,-999,0.00,,,-99.99,perl,2013-04-14 20:58:00,
2013-04-14 17:03:00,45.1,-99.9,30.11,WNW,291,0.0,0.0,-999,0.00,,,-99.99,perl,2013-04-14 21:03:00,
2013-04-14 17:08:00,44.8,-99.9,30.11,WNW,291,0.0,0.0,-999,0.00,,,-99.99,perl,2013-04-14 21:08:00,
2013-04-14 17:13:00,44.8,-99.9,30.11,NE,44,0.0,0.0,-999,0.00,,,-99.99,perl,2013-04-14 21:13:00,
2013-04-14 17:18:00,44.6,-99.9,30.11,NE,49,0.0,0.0,-999,0.00,,,-99.99,perl,2013-04-14 21:18:00,
2013-04-14 17:23:00,44.6,-99.9,30.11,West,262,0.0,0.0,-999,0.00,,,-99.99,perl,2013-04-14 21:23:00,
2013-04-14 17:28:00,44.6,-99.9,30.11,North,357,0.0,0.0,-999,0.00,,,-99.99,perl,2013-04-14 21:28:00,
2013-04-14 17:33:00,44.8,-99.9,30.11,NNW,342,0.0,0.0,-999,0.00,,,-99.99,perl,2013-04-14 21:33:00,
2013-04-14 17:39:00,44.8,-99.9,30.11,NNW,341,0.0,0.0,-999,0.00,,,-99.99,perl,2013-04-14 21:39:00,
2013-04-14 17:44:00,45.1,-99.9,30.11,East,83,0.0,0.0,-999,0.00,,,-99.99,perl,2013-04-14 21:44:00,
2013-04-14 17:49:00,45.0,-99.9,30.11,North,2,0.0,0.0,-999,0.00,,,-99.99,perl,2013-04-14 21:49:00,
2013-04-14 17:54:00,45.0,-99.9,30.11,WSW,244,0.0,4.0,-999,0.00,,,-99.99,perl,2013-04-14 21:54:00,
2013-04-14 18:00:00,45.1,-99.9,30.11,ESE,104,0.0,3.6,-999,0.00,,,-99.99,perl,2013-04-14 22:00:00,
2013-04-14 18:05:00,45.0,-99.9,30.11,NNE,26,3.1,5.8,-999,0.00,,,-99.99,perl,2013-04-14 22:05:00,
2013-04-14 18:10:00,44.4,-99.9,30.11,ESE,114,5.4,5.8,-999,0.00,,,-99.99,perl,2013-04-14 22:10:00,
2013-04-14 18:15:00,44.1,-99.9,30.11,NE,36,3.6,4.0,-999,0.00,,,-99.99,perl,2013-04-14 22:15:00,
2013-04-14 18:20:00,43.7,-99.9,30.11,West,272,3.6,4.9,-999,0.00,,,-99.99,perl,2013-04-14 22:20:00,
2013-04-14 18:25:00,43.9,-99.9,30.11,North,352,0.0,4.0,-999,0.00,,,-99.99,perl,2013-04-14 22:25:00,
2013-04-14 18:30:00,43.7,-99.9,30.11,ENE,75,0.0,2.7,-999,0.00,,,-99.99,perl,2013-04-14 22:30:00,
2013-04-14 18:35:00,43.7,-99.9,30.11,NNE,20,2.2,3.6,-999,0.00,,,-99.99,perl,2013-04-14 22:35:00,
2013-04-14 18:40:00,43.3,-99.9,30.11,NNE,14,2.7,4.0,-999,0.00,,,-99.99,perl,2013-04-14 22:40:00,
2013-04-14 18:45:00,43.3,-99.9,30.11,North,10,0.0,3.1,-999,0.00,,,-99.99,perl,2013-04-14 22:45:00,
2013-04-14 18:51:00,43.0,-99.9,30.11,North,357,0.0,0.0,-999,0.00,,,-99.99,perl,2013-04-14 22:51:00,
2013-04-14 18:56:00,43.0,-99.9,30.11,NE,45,2.7,5.4,-999,0.00,,,-99.99,perl,2013-04-14 22:56:00,
2013-04-14 19:01:00,42.6,-99.9,30.11,North,350,2.2,3.1,-999,0.00,,,-99.99,perl,2013-04-14 23:01:00,
2013-04-14 19:06:00,42.4,-99.9,30.11,North,4,0.0,0.0,-999,0.00,,,-99.99,perl,2013-04-14 23:06:00,
2013-04-14 19:11:00,42.3,-99.9,30.11,NNE,16,0.0,0.0,-999,0.00,,,-99.99,perl,2013-04-14 23:11:00,
2013-04-14 19:16:00,42.3,-99.9,30.14,NNE,15,0.0,0.0,-999,0.00,,,-99.99,perl,2013-04-14 23:16:00,
2013-04-14 19:21:00,42.1,-99.9,30.14,NE,48,0.0,0.0,-999,0.00,,,-99.99,perl,2013-04-14 23:21:00,
2013-04-14 19:27:00,41.9,-99.9,30.14,NE,49,0.0,2.7,-999,0.00,,,-99.99,perl,2013-04-14 23:27:00,
2013-04-14 19:32:00,41.7,-99.9,30.14,NE,43,2.7,2.7,-999,0.00,,,-99.99,perl,2013-04-14 23:32:00,
2013-04-14 19:37:00,41.5,-99.9,30.14,NE,51,0.0,0.0,-999,0.00,,,-99.99,perl,2013-04-14 23:37:00,
2013-04-14 19:43:00,41.4,-99.9,30.14,ENE,71,0.0,0.0,-999,0.00,,,-99.99,perl,2013-04-14 23:43:00,
2013-04-14 19:49:00,41.2,-99.9,30.14,NE,56,0.0,0.0,-999,0.00,,,-99.99,perl,2013-04-14 23:49:00,
2013-04-14 19:54:00,41.0,-99.9,30.14,NE,56,0.0,0.0,-999,0.00,,,-99.99,perl,2013-04-14 23:54:00,
2013-04-14 20:00:00,40.8,-99.9,30.14,NE,49,0.0,0.0,-999,0.00,,,-99.99,perl,2013-04-15 00:00:00,
2013-04-14 20:05:00,40.6,-99.9,30.14,NE,50,0.0,0.0,-999,0.00,,,-99.99,perl,2013-04-15 00:05:00,
2013-04-14 20:10:00,40.5,-99.9,30.14,ENE,59,0.0,0.0,-999,0.00,,,-99.99,perl,2013-04-15 00:10:00,
2013-04-14 20:15:00,40.5,-99.9,30.14,ENE,72,0.0,0.0,-999,0.00,,,-99.99,perl,2013-04-15 00:15:00,
2013-04-14 20:21:00,40.3,-99.9,30.14,ENE,73,0.0,0.0,-999,0.00,,,-99.99,perl,2013-04-15 00:21:00,
2013-04-14 20:26:00,40.1,-99.9,30.14,ENE,72,0.0,0.0,-999,0.00,,,-99.99,perl,2013-04-15 00:26:00,
2013-04-14 20:31:00,39.9,-99.9,30.14,ENE,73,0.0,0.0,-999,0.00,,,-99.99,perl,2013-04-15 00:31:00,
2013-04-14 20:36:00,39.7,-99.9,30.14,ENE,73,0.0,0.0,-999,0.00,,,-99.99,perl,2013-04-15 00:36:00,
2013-04-14 20:41:00,39.7,-99.9,30.14,ENE,73,0.0,0.0,-999,0.00,,,-99.99,perl,2013-04-15 00:41:00,
2013-04-14 20:46:00,39.4,-99.9,30.14,ENE,73,0.0,0.0,-999,0.00,,,-99.99,perl,2013-04-15 00:46:00,
2013-04-14 20:51:00,39.2,-99.9,30.14,East,84,0.0,0.0,-999,0.00,,,-99.99,perl,2013-04-15 00:51:00,
2013-04-14 20:57:00,39.0,-99.9,30.14,East,86,0.0,0.0,-999,0.00,,,-99.99,perl,2013-04-15 00:57:00,
2013-04-14 21:02:00,38.8,-99.9,30.14,East,85,0.0,0.0,-999,0.00,,,-99.99,perl,2013-04-15 01:02:00,
2013-04-14 21:08:00,38.7,-99.9,30.14,East,85,0.0,0.0,-999,0.00,,,-99.99,perl,2013-04-15 01:08:00,
2013-04-14 21:13:00,38.7,-99.9,30.14,East,86,0.0,0.0,-999,0.00,,,-99.99,perl,2013-04-15 01:13:00,
2013-04-14 21:18:00,38.7,-99.9,30.17,East,85,0.0,0.0,-999,0.00,,,-99.99,perl,2013-04-15 01:18:00,
2013-04-14 21:23:00,38.5,-99.9,30.17,East,86,0.0,0.0,-999,0.00,,,-99.99,perl,2013-04-15 01:23:00,
2013-04-14 21:28:00,38.5,-99.9,30.17,East,85,0.0,0.0,-999,0.00,,,-99.99,perl,2013-04-15 01:28:00,
2013-04-14 21:34:00,38.3,-99.9,30.17,East,91,0.0,0.0,-999,0.00,,,-99.99,perl,2013-04-15 01:34:00,
2013-04-14 21:39:00,38.3,-99.9,30.17,ESE,109,0.0,0.0,-999,0.00,,,-99.99,perl,2013-04-15 01:39:00,
2013-04-14 21:44:00,38.3,-99.9,30.17,ESE,109,0.0,0.0,-999,0.00,,,-99.99,perl,2013-04-15 01:44:00,
2013-04-14 21:49:00,38.3,-99.9,30.17,ESE,110,0.0,0.0,-999,0.00,,,-99.99,perl,2013-04-15 01:49:00,
2013-04-14 21:54:00,38.3,-99.9,30.17,ESE,110,0.0,0.0,-999,0.00,,,-99.99,perl,2013-04-15 01:54:00,
2013-04-14 21:59:00,38.3,-99.9,30.17,ESE,110,0.0,0.0,-999,0.00,,,-99.99,perl,2013-04-15 01:59:00,
2013-04-14 22:04:00,38.1,-99.9,30.17,ESE,110,0.0,0.0,-999,0.00,,,-99.99,perl,2013-04-15 02:04:00,
2013-04-14 22:09:00,38.1,-99.9,30.17,ESE,118,0.0,0.0,-999,0.00,,,-99.99,perl,2013-04-15 02:09:00,
2013-04-14 22:14:00,38.1,-99.9,30.17,ESE,112,0.0,0.0,-999,0.00,,,-99.99,perl,2013-04-15 02:14:00,
2013-04-14 22:19:00,38.1,-99.9,30.17,ESE,112,0.0,0.0,-999,0.00,,,-99.99,perl,2013-04-15 02:19:00,
2013-04-14 22:24:00,37.9,-99.9,30.17,ESE,103,0.0,0.0,-999,0.00,,,-99.99,perl,2013-04-15 02:24:00,
2013-04-14 22:29:00,37.9,-99.9,30.17,ESE,113,0.0,0.0,-999,0.00,,,-99.99,perl,2013-04-15 02:29:00,
2013-04-14 22:34:00,37.9,-99.9,30.17,SE,125,0.0,0.0,-999,0.00,,,-99.99,perl,2013-04-15 02:34:00,
2013-04-14 22:39:00,37.9,-99.9,30.17,SE,127,0.0,0.0,-999,0.00,,,-99.99,perl,2013-04-15 02:39:00,
2013-04-14 22:44:00,37.9,-99.9,30.17,SE,145,0.0,0.0,-999,0.00,,,-99.99,perl,2013-04-15 02:44:00,
2013-04-14 22:49:00,37.8,-99.9,30.17,East,100,0.0,0.0,-999,0.00,,,-99.99,perl,2013-04-15 02:49:00,
2013-04-14 22:54:00,37.6,-99.9,30.17,East,97,0.0,0.0,-999,0.00,,,-99.99,perl,2013-04-15 02:54:00,
2013-04-14 22:59:00,37.6,-99.9,30.17,ESE,105,0.0,0.0,-999,0.00,,,-99.99,perl,2013-04-15 02:59:00,
2013-04-14 23:04:00,37.4,-99.9,30.17,ESE,111,0.0,0.0,-999,0.00,,,-99.99,perl,2013-04-15 03:04:00,
2013-04-14 23:09:00,37.0,-99.9,30.17,ESE,103,2.7,4.0,-999,0.00,,,-99.99,perl,2013-04-15 03:09:00,
2013-04-14 23:14:00,37.0,-99.9,30.17,SE,133,0.7,2.2,-999,0.00,,,-99.99,perl,2013-04-15 03:14:00,
2013-04-14 23:19:00,37.0,-99.9,30.17,East,100,0.0,0.0,-999,0.00,,,-99.99,perl,2013-04-15 03:19:00,
2013-04-14 23:25:00,37.0,-99.9,30.17,ESE,106,0.0,0.0,-999,0.00,,,-99.99,perl,2013-04-15 03:25:00,
2013-04-14 23:30:00,36.9,-99.9,30.17,ESE,107,0.0,0.0,-999,0.00,,,-99.99,perl,2013-04-15 03:30:00,
2013-04-14 23:35:00,36.7,-99.9,30.17,ESE,118,0.0,0.0,-999,0.00,,,-99.99,perl,2013-04-15 03:35:00,
2013-04-14 23:40:00,36.7,-99.9,30.17,ESE,119,0.0,0.0,-999,0.00,,,-99.99,perl,2013-04-15 03:40:00,
2013-04-14 23:45:00,36.7,-99.9,30.14,East,88,0.0,0.0,-999,0.00,,,-99.99,perl,2013-04-15 03:45:00,
2013-04-14 23:50:00,36.7,-99.9,30.14,East,88,0.0,0.0,-999,0.00,,,-99.99,perl,2013-04-15 03:50:00,
2013-04-14 23:55:00,36.5,-99.9,30.14,East,88,0.0,0.0,-999,0.00,,,-99.99,perl,2013-04-15 03:55:00,